Location: Oberwangen
(47.4286°N, 8.9679°E)
Time: 09:21:38
(UTC+00:00)

Cosmos 1447 Rocket - Pass Details

Date: 28 October 2021
Orbit: 953 x 996 km, 82.9° (Epoch: 27 November)

Event Time Altitude Azimuth Distance (km) Brightness Sun altitude
Rises 18:45:05 0° 343° (NNW) 3,643 7.8 -26.2°
Reaches altitude 10° 18:47:48 10° 334° (NNW) 2,692 7.2 -26.6°
Maximum altitude 18:53:10 33° 274° (W) 1,563 6.1 -27.5°
Drops below altitude 10° 18:58:31 10° 213° (SSW) 2,686 7.0 -28.4°
Sets 19:01:15 0° 204° (SSW) 3,632 7.6 -28.9°
